{"data":{"norad_id":57346,"intl_designator":"2023-099U","name":"STARLINK-6359","alt_names":[],"object_type":"PAYLOAD","status":"ACTIVE","operator":null,"country":"US","launch_date":"2023-07-16","launch_site_code":"AFETR","launch_vehicle":null,"mission":null,"orbit_class":"UNKNOWN","rcs_meters":null,"size_class":null,"mass_kg":null,"dimensions":null,"purposes":["comms"],"wikipedia_slug":null,"has_3d_model":false,"image_url":null,"decayed_at":null,"tle_current":{"epoch":"2026-09-20T05:18:36.412128Z","epoch_age_seconds":148370,"freshness":"FRESH","line1":"1 57346U 23099U   26263.22125477  .00000423  00000+0  24889-4 0  9990","line2":"2 57346  43.0030 230.7100 0000846 269.0921  90.9834 15.27574872175865","mean_motion":15.27574872,"eccentricity":8.46e-5,"inclination_deg":43.003,"raan_deg":230.71,"arg_perigee_deg":269.0921,"mean_anomaly_deg":90.9834,"bstar":2.4889e-5,"rev_number":17586,"period_min":94.267065162879,"perigee_km":482.48399351663,"apogee_km":483.64490880217,"semimajor_km":6861.2014511594,"source":"CELESTRAK","updated_at":"2026-09-21T09:00:33.599561Z"}}}